Location: Unspecified
(43.8044°N, 11.0278°E)
Time: 18:32:52
(UTC+02:00)

Cosmos 1674 - Visible Passes

Search period start: 20 April 2018 00:00
Search period end: 30 April 2018 00:00
Orbit: 496 x 522 km, 82.5° (Epoch: 19 April)

Date Brightness Start Highest point End Pass type
(mag) Time Alt. Az. Time Alt. Az. Time Alt. Az.
21 Apr 5.7 05:41:33 10° SE 05:44:01 17° E 05:46:30 10° NE visible
22 Apr 5.9 05:25:11 10° ESE 05:27:01 13° E 05:28:52 10° ENE visible
23 Apr 6.3 05:09:30 10° E 05:10:02 10° E 05:10:34 10° ENE visible
27 Apr 3.7 05:33:05 10° S 05:36:44 49° E 05:40:23 10° NNE visible
28 Apr 4.2 05:16:10 10° SSE 05:19:40 37° E 05:23:10 10° NNE visible
29 Apr 4.7 04:59:20 10° SSE 05:02:37 29° E 05:05:54 10° NNE visible
